Home > Weather > Peterborough > Past weeks

Flag for Canada Past Weather in Peterborough, Ontario, Canada — Yesterday and Last 2 Weeks

Now
64 °F

Sunny.


Feels Like: 64 °F
Forecast: 63 / 85 °F
Wind: 2 mph from North

Location: Peterborough Airport

Current Time: Jul 24, 2016 at 9:01:10 AM

Latest Report: Jul 24, 2016 at 8:00 AM


Visibility: 9 mi

Pressure: 30.04 "Hg

Humidity: 88%

Dew Point: 61 °F

Location of PeterboroughLocation

Past Weather in Peterborough — Graph

°F

Peterborough Temperature Yesterday

Maximum temperature yesterday: 88 °F (at 1:00 PM)
Minimum temperature yesterday: 64 °F (at 11:00 PM)
Average temperature yesterday: 78 °F

High & Low Weather Summary for the Past Weeks

 TemperatureHumidityPressure
High93 °F (Jul 22, 3:00 PM)100% (Jul 11, 12:00 AM)30.27 "Hg (Jul 11, 12:00 AM)
Low45 °F (Jul 20, 6:00 AM)27% (Jul 22, 6:00 PM)29.68 "Hg (Jul 9, 11:00 AM)
Average70 °F70%29.97 "Hg
* Reported Jul 9 7:02 AM — Jul 24 7:00 AM, Peterborough, Weather by CustomWeather, © 2016

Note: Actual official high and low records may vary slightly from our data, if they occured in-between our weather recording intervals... More about our weather records

Advertising

Peterborough Weather History for the Previous 24 Hours

Scroll right to see more
 ConditionsComfort  
Time TempWeatherWind HumidityBarometerVisibility
7:00 AM
Sun, Jul 24
59 °FSunny.No wind94%30.05 "Hg9 mi
6:00 AM57 °FClear.No wind94%30.03 "Hg9 mi
5:00 AM59 °FClear.2 mph94%30.03 "Hg9 mi
4:00 AM61 °FClear.2 mph94%30.02 "Hg9 mi
3:00 AM59 °FClear.5 mph100%30.01 "Hg9 mi
2:00 AM59 °FClear.No wind100%30.01 "Hg9 mi
1:00 AM59 °FClear.No wind94%30.01 "Hg9 mi
12:00 AM63 °FClear.No wind88%29.98 "Hg9 mi
11:00 PM
Sat, Jul 23
64 °FClear.2 mph78%29.98 "Hg9 mi
10:00 PM75 °FClear.6 mph54%29.96 "Hg9 mi
9:00 PM79 °FSunny.6 mph51%29.93 "Hg9 mi
8:00 PM82 °FSunny.10 mph42%29.91 "Hg9 mi
7:00 PM86 °FSunny.13 mph38%29.90 "Hg9 mi
6:00 PM88 °FPartly sunny.13 mph35%29.90 "Hg9 mi
5:00 PM88 °FPassing clouds.17 mph35%29.89 "Hg9 mi
4:00 PM88 °FSunny.17 mph33%29.89 "Hg9 mi
3:00 PM88 °FSunny.13 mph35%29.89 "Hg9 mi
2:00 PM86 °FScattered clouds.10 mph43%29.89 "Hg9 mi
1:00 PM88 °FPassing clouds.18 mph38%29.89 "Hg9 mi
12:00 PM86 °FPassing clouds.13 mph46%29.89 "Hg9 mi
11:00 AM84 °FSunny.13 mph45%29.89 "Hg9 mi
10:00 AM81 °FSunny.10 mph54%29.88 "Hg9 mi
9:00 AM73 °FScattered clouds.14 mph69%29.88 "Hg9 mi
Weather by CustomWeather, © 2016

See weather overviewHow to use our weather pages